Home   Weather   Yucaipa   Past weeks
Flag for USA

Past Weather in Yucaipa, California, USA — Yesterday and Last 2 Weeks

Now
88 °F

Partly sunny.


Feels Like: 84 °F
Forecast: 72 / 48 °F
Wind: 14 mph from Southwest

Location: Norton Air Force Base / San Bern

Current Time: Oct 16, 2019 at 5:36:03 pm

Latest Report: Oct 16, 2019 at 4:53 pm


Visibility: 7 mi

Pressure: 29.81 "Hg (27.25 "Hg at 798m altitude)

Humidity: 16%

Dew Point: 36 °F

Location of YucaipaLocation

Past Weather in Yucaipa — Graph

°F

Yucaipa Temperature Yesterday

Maximum temperature yesterday: 93 °F (at 3:50 pm)
Minimum temperature yesterday: 52 °F (at 4:20 am)
Average temperature yesterday: 68 °F

High & Low Weather Summary for the Past Weeks

 TemperatureHumidityPressure
High99 °F (Oct 6, 2:50 pm)78% (Oct 14, 12:01 am)30.08 "Hg (Oct 14, 12:01 am)
Low46 °F (Oct 11, 7:00 am)4% (Oct 10, 4:47 pm)29.77 "Hg (Oct 9, 3:48 pm)
Average67 °F37%29.94 "Hg
* Reported Oct 1 3:55 pm — Oct 16 3:48 pm, Yucaipa. Weather by CustomWeather, © 2019

Note: Actual official high and low records may vary slightly from our data, if they occured in-between our weather recording intervals... More about our weather records

Advertising

Yucaipa Weather History for the Previous 24 Hours

Scroll right to see more
 ConditionsComfort  
Time TempWeatherWind HumidityBarometerVisibility
3:48 pm
Wed, Oct 16
93 °FPartly sunny.8 mph11%29.81 "Hg7 mi
2:55 pm93 °FPartly sunny.8 mph11%29.82 "Hg7 mi
1:47 pm93 °FSunny.8 mph11%29.86 "Hg7 mi
11:45 am90 °FSunny.8 mph13%29.94 "Hg7 mi
10:46 am86 °FSunny.No wind13%29.96 "Hg7 mi
9:55 am81 °FSunny.No wind18%29.98 "Hg7 mi
8:45 am68 °FSunny.No wind26%30.00 "Hg10 mi
7:45 am64 °FSunny.No wind30%29.99 "Hg10 mi
7:00 am61 °FSunny.No wind34%29.98 "Hg10 mi
5:43 am64 °FClear.7 mph30%29.97 "Hg10 mi
5:20 am60 °FClear.3 mph34%29.97 "Hg10 mi
5:01 am61 °FClear.3 mph34%29.97 "Hg10 mi
4:40 am60 °FClear.5 mph35%29.97 "Hg10 mi
4:21 am60 °FClear.6 mph35%29.97 "Hg10 mi
4:03 am62 °FClear.3 mph35%29.97 "Hg10 mi
3:40 am64 °FClear.No wind32%29.97 "Hg10 mi
3:20 am61 °FClear.No wind34%29.97 "Hg10 mi
3:00 am62 °FClear.No wind35%29.97 "Hg10 mi
2:23 am64 °FClear.6 mph33%29.98 "Hg10 mi
2:00 am64 °FClear.3 mph34%29.99 "Hg10 mi
1:20 am65 °FClear.3 mph36%29.99 "Hg10 mi
1:01 am65 °FClear.No wind37%29.99 "Hg10 mi
12:43 am65 °FClear.No wind36%29.99 "Hg10 mi
12:20 am65 °FClear.5 mph35%29.99 "Hg10 mi
12:01 am67 °FClear.3 mph33%29.99 "Hg10 mi
11:21 pm
Tue, Oct 15
69 °FClear.No wind31%30.00 "Hg10 mi
11:03 pm70 °FClear.No wind31%30.00 "Hg10 mi
10:40 pm70 °FClear.No wind29%30.00 "Hg10 mi
10:20 pm71 °FClear.No wind28%30.00 "Hg10 mi
10:00 pm73 °FClear.No wind27%29.99 "Hg10 mi
8:50 pm77 °FClear.No wind34%29.98 "Hg7 mi
7:50 pm79 °FClear.3 mph30%29.96 "Hg7 mi
6:50 pm84 °FClear.9 mph15%29.94 "Hg7 mi
5:46 pm91 °FSunny.No wind11%29.91 "Hg7 mi
Weather by CustomWeather, © 2019

See weather overview